Tuscaloosa, AL

7:40 PM CDT on March 28, 2017 (GMT -0500)
Tuscaloosa Municipal

Weather History for KTCL - January, 2014

Change the Weather History Date:

Tuesday, January 21, 2014

  Actual Average Record
Temperature  
Mean Temperature 41 °F 45 °F  
Max Temperature 50 °F 56 °F 76 °F (1959)
Min Temperature 32 °F 34 °F -1 °F (1985)
Degree Days  
Heating Degree Days 28 20  
Month to date heating degree days 434  
Since 1 July heating degree days 1435  
Moisture  
Dew Point 22 °F    
Average Humidity 60    
Maximum Humidity 82    
Minimum Humidity 38    
Precipitation  
Precipitation 0.00 in 0.18 in 1.77 in (2016)
Month to date precipitation 2.09 3.43  
Year to date precipitation 2.09 3.43  
Snow  
Snow 0.00 in 0.00 in - ()
Month to date snowfall 0.0 0.2  
Since 1 July snowfall 0.0 0.2  
Snow Depth 0.00 in    
Sea Level Pressure  
Sea Level Pressure 30.06 in    
Wind  
Wind Speed 10 mph (NW)    
Max Wind Speed 24 mph    
Max Gust Speed 32 mph    
Visibility 10 miles    
Events      
T = Trace of Precipitation, MM = Missing Value Source: NWS Daily Summary

Daily Weather History Graph

Daily Weather History Graph

Search for Another Location

Airport or City:

Trip Planner

Search our weather history database for the weather conditions in past years. The results will help you decide how hot, cold, wet, or windy it might be!

Date:

Astronomy

Jan. 21, 2014 Rise Set
Actual Time 6:52 AM CST 5:11 PM CST
Civil Twilight 6:25 AM CST 5:38 PM CST
Nautical Twilight 5:55 AM CST 6:08 PM CST
Astronomical Twilight 5:25 AM CST 6:38 PM CST
Moon 10:24 PM CST (1/21) 9:39 AM CST (1/21)
Length of Visible Light 11h 12m
Length of Day
10h 19m
Waning Gibbous, 74% of the Moon is Illuminated
Jan 21
Waning Gibbous
Jan 23
Last Quarter
Jan 30
New
Feb 6
First Quarter
Feb 14
Full

Hourly Weather History & Observations

Time (CST) Temp. Windchill Dew Point Humidity Pressure Visibility Wind Dir Wind Speed Gust Speed Precip Events Conditions
12:53 AM 39.0 °F - 32.0 °F 76% 29.88 in 10.0 mi Calm Calm - N/A   Partly Cloudy
1:53 AM 41.0 °F - 34.0 °F 76% 29.85 in 10.0 mi Calm Calm - N/A   Scattered Clouds
2:53 AM 43.0 °F - 34.0 °F 71% 29.86 in 10.0 mi Calm Calm - N/A   Mostly Cloudy
3:53 AM 43.0 °F 40.3 °F 34.0 °F 71% 29.86 in 10.0 mi SW 4.6 mph - N/A   Clear
4:53 AM 46.9 °F - 35.1 °F 63% 29.88 in 10.0 mi WNW 8.1 mph - N/A   Clear
5:53 AM 46.9 °F - 30.9 °F 54% 29.93 in 10.0 mi NW 9.2 mph 18.4 mph N/A   Clear
6:53 AM 45.0 °F 41.2 °F 30.0 °F 56% 29.96 in 10.0 mi NW 6.9 mph - N/A   Clear
7:53 AM 45.0 °F 40.1 °F 30.9 °F 58% 29.98 in 10.0 mi NW 9.2 mph - N/A   Clear
8:53 AM 46.9 °F - 28.9 °F 50% 30.00 in 10.0 mi NW 11.5 mph 25.3 mph N/A   Clear
9:53 AM 48.9 °F - 27.0 °F 43% 30.03 in 10.0 mi NNW 18.4 mph 26.5 mph N/A   Mostly Cloudy
10:53 AM 46.0 °F 38.0 °F 24.1 °F 42% 30.06 in 10.0 mi WNW 21.9 mph 32.2 mph N/A   Mostly Cloudy
11:53 AM 46.9 °F - 23.0 °F 39% 30.06 in 10.0 mi WNW 17.3 mph 29.9 mph N/A   Overcast
12:53 PM 43.0 °F 35.7 °F 21.9 °F 43% 30.06 in 10.0 mi NNW 15.0 mph 27.6 mph N/A   Overcast
1:53 PM 43.0 °F 35.4 °F 19.9 °F 40% 30.08 in 10.0 mi NNW 16.1 mph 25.3 mph N/A   Mostly Cloudy
2:53 PM 41.0 °F 32.2 °F 19.0 °F 41% 30.10 in 10.0 mi NW 18.4 mph 29.9 mph N/A   Partly Cloudy
3:53 PM 37.9 °F 30.9 °F 17.1 °F 43% 30.13 in 10.0 mi NNW 10.4 mph 25.3 mph N/A   Partly Cloudy
4:53 PM 36.0 °F 26.3 °F 15.1 °F 43% 30.17 in 10.0 mi NNW 16.1 mph 23.0 mph N/A   Partly Cloudy
5:53 PM 32.0 °F 23.0 °F 14.0 °F 48% 30.19 in 10.0 mi NNW 11.5 mph 16.1 mph N/A   Clear
6:53 PM 30.9 °F 23.5 °F 12.9 °F 47% 30.21 in 10.0 mi NNW 8.1 mph - N/A   Clear
7:53 PM 30.0 °F 22.4 °F 12.0 °F 47% 30.19 in 10.0 mi NNW 8.1 mph - N/A   Clear
8:53 PM 28.9 °F 19.8 °F 10.9 °F 47% 30.20 in 10.0 mi NNW 10.4 mph - N/A   Clear
9:53 PM 28.0 °F 20.8 °F 10.9 °F 49% 30.22 in 10.0 mi NNW 6.9 mph 17.3 mph N/A   Clear
10:53 PM 26.1 °F 18.4 °F 10.9 °F 53% 30.22 in 10.0 mi NNW 6.9 mph - N/A   Clear
11:53 PM 25.0 °F 17.1 °F 10.0 °F 53% 30.22 in 10.0 mi NNW 6.9 mph - N/A   Clear